Location: Ciserano
(45.5833°N, 9.6000°E)
Time: 12:10:39
(UTC+00:00)

PSLV R/B - Pass Details

Date: 29 November 2020
Orbit: 503 x 578 km, 97.8° (Epoch: 25 January)

Event Time Altitude Azimuth Distance (km) Brightness Sun altitude
Rises 05:31:32 0° 9° (N) 2,714 7.3 -11.6°
Reaches altitude 10° 05:33:42 10° 5° (N) 1,804 6.3 -11.3°
Maximum altitude 05:37:31 56° 287° (WNW) 631 3.8 -10.6°
Drops below altitude 10° 05:41:13 10° 209° (SSW) 1,748 6.3 -10.0°
Sets 05:43:18 0° 205° (SSW) 2,620 7.2 -9.7°
